Regional Weather Roundup
Issued by NWS Northern Indiana

Home | Current Version | Previous Version | Text Only | Print | Product List | Glossary Off
Versions: 1 2 3 4 5 6 7 8 9 10 11 12 13 14 15 16 17 18 19 20 21 22 23 24 25 26 27 28 29 30 31 32 33 34 35 36 37 38 39 40 41 42 43 44 45 46 47 48 49 50

943
ASUS43 KIWX 240810
RWRIWX

KIWX WEATHER ROUNDUP
NATIONAL WEATHER SERVICE NORTHERN INDIANA
400 AM EDT MON APR 24 2017

NOTE: "FAIR" INDICATES FEW OR NO CLOUDS BELOW 12,000 FEET WITH NO
SIGNIFICANT WEATHER AND/OR OBSTRUCTIONS TO VISIBILITY.

* THESE STATIONS ARE NOT UNDER NWS QUALITY CONTROL. THEY ALSO MAY NOT
  REPORT WEATHER SUCH AS PRECIPITATION OR FOG.

INZ001>027-240900-
NORTHERN INDIANA

CITY           SKY/WX    TMP DP  RH WIND       PRES   REMARKS
GARY*          PTCLDY    44  42  91 NE5       30.03S
VALPARAISO     CLEAR     46  32  58 NE3       30.01F
MICHIGAN CITY* CLEAR     36  34  93 CALM      30.02F
LAPORTE*       CLEAR     40  32  71 CALM      30.01F
KNOX*          CLEAR     37  21  52 SE3       30.02R
SOUTH BEND     CLEAR     39  32  76 CALM      30.02F
GOSHEN         PTCLDY    43  35  73 CALM      30.02S
MONTICELLO*    PTCLDY    44  34  66 NE3       29.99F
LOGANSPORT*    CLEAR     41  36  81 NE3       30.01S
ROCHESTER*     PTCLDY    46  36  66 N5        30.02S
WARSAW*        PTCLDY    39  37  93 CALM      30.01F
ANGOLA*        CLEAR     39  39 100 CALM      30.02S
FORT WAYNE     PTCLDY    44  29  55 NE5       30.00F
HUNTINGTON*    CLEAR     44  31  58 NE3       30.00S
PERU/GRISSOM   CLEAR     44  34  67 NE5       29.98F
MARION*        CLEAR     45  28  53 E7        29.99F

$$
INZ028>050-240900-
CENTRAL INDIANA

CITY           SKY/WX    TMP DP  RH WIND       PRES   REMARKS
LAFAYETTE      CLOUDY    43  38  82 CALM      29.99F
KOKOMO*        CLEAR     42  32  67 NE3       29.99F
MUNCIE*        CLEAR     45  31  58 CALM      29.99S
INDIANAPOLIS   CLEAR     48  33  56 N8        29.97F

$$
MIZ043>046-050>051-056>058-064>065-071>073-077>080-240900-
SOUTHWEST LOWER MICHIGAN

CITY           SKY/WX    TMP DP  RH WIND       PRES   REMARKS
BATTLE CREEK   CLEAR     46  42  86 NE3       30.05S
BENTON HARBOR  CLEAR     35  31  85 CALM      30.02F
COLDWATER*     PTCLDY    43  41  93 CALM      30.03S
HILLSDALE*     CLOUDY    39  34  81 CALM      30.03S
HOLLAND        CLEAR     45  39  79 E7        30.04S
GRAND RAPIDS   CLEAR     42  39  89 E7        30.05S
KALAMAZOO      CLEAR     44  35  70 CALM      30.04S
STURGIS*       PTCLDY    42  37  81 E5        30.02S
THREE RIVERS*  FAIR      41  36  83 CALM      30.03S

$$
OHZ001>008-015>018-024>025-240900-
NORTHWEST OHIO

CITY           SKY/WX    TMP DP  RH WIND       PRES   REMARKS
WAUSEON*       FAIR      43  34  70 NE5       30.03S
DEFIANCE       CLEAR     39  33  79 E3        30.02F
FINDLAY        CLEAR     45  30  55 NE7       30.00F
TOLEDO EXPRESS CLEAR     42  34  73 CALM      30.03S
TOLEDO METCALF CLEAR     48  40  73 NE7       30.03F
LIMA           CLEAR     44  34  67 E6        29.99F

$$
AND FOR LAKE MICHIGAN COASTAL AND OPEN LAKE BUOY OBSERVATIONS

STATION/POSITION TEMP    WIND        PRES    VSBY  WAVE
                 AIR SEA DIR/SP/G                  HT/PER
                 (F)     (DEG/KT/KT) (MB)    (MI)  (FT/S)
CALUMET HARBOR    43     350/  5/  6 1015.8F
MICHIGAN CITY     46      30/  4/  5   N/A
BURNS HARBOR      45      30/  5/  7 1016.9F
SOUTH LAKE BUOY   40 40   30/  6/  6 1017.7          3/ 6
4 MI NW BRIDGMAN  49 50   30/  4/  4 1016.8          2/ 2

$$
&&




USA.gov is the U.S. government's official web portal to all federal, state and local government web resources and services.